Hourly Weather Roundup
Issued by NWS Central Illinois

Home | Current Version | Previous Version | Text Only | Print | Product List | Glossary On
Versions: 1 2 3 4 5 6 7 8 9 10 11 12 13 14 15 16 17 18 19 20 21 22 23 24 25 26 27 28 29 30 31 32 33 34 35 36 37 38 39 40 41 42 43 44 45 46 47 48 49 50
276
NZUS43 KILX 231010
HWRILX

AREA WEATHER ROUNDUP
NATIONAL WEATHER SERVICE, LINCOLN IL
400 AM CST MON JAN 23 2017


CITY           SKY/WX    TMP DP  RH WIND       PRES   REMARKS
BLOOMINGTON    CLOUDY    37  35  92 N17G24    29.71S WCI  27
CHAMPAIGN      CLOUDY    39  36  89 N17       29.68R WCI  30
DANVILLE       CLOUDY    40  38  94 N14G21    29.63S FOG     WCI  32
DECATUR        CLOUDY    40  38  93 N12       29.71R WCI  33
EFFINGHAM      CLOUDY    41  40  97 NW15G22   29.69R FOG     WCI  33
FLORA          CLOUDY    43  39  86 NW15G22   29.66R
GALESBURG      CLOUDY    35  35 100 NW6       29.77F FOG     WCI  30
JACKSONVILLE   CLOUDY    37  36  93 NW15      29.75S FOG     WCI  28
LACON          CLOUDY    37  35  94 N9        29.75R WCI  30
LAWRENCEVILLE  CLOUDY    43  41  93 NW21G35   29.60R WCI  34
LITCHFIELD     CLOUDY    37  36  94 N17       29.72S FOG     WCI  28
$$


CITY           SKY/WX    TMP DP  RH WIND       PRES   REMARKS
LINCOLN        CLOUDY    39  38  95 NW8       29.73S WCI  34
MACOMB         CLOUDY    36  36  98 NW13      29.80F FOG     WCI  28
MATTOON        CLOUDY    40  38  93 N16       29.67R FOG     WCI  31
MT CARMEL AP   CLOUDY    43  40  89 NW22      29.59R FOG     WCI  34
OLNEY-NOBLE AP CLOUDY    41  41 100 NW20      29.65R FOG     WCI  32
PARIS          CLOUDY    40  39  97 N13G21    29.65R FOG     WCI  33
PEORIA         CLOUDY    37  35  92 NW12G17   29.75S WCI  29
PONTIAC        CLOUDY    38  38 100 NW12      29.72R FOG     WCI  31
RANTOUL        CLOUDY    41  39  92 N15       29.69R WCI  33
SPRINGFIELD    CLOUDY    40  36  86 N12       29.74S WCI  33
TAYLORVILLE    CLOUDY    38  36  93 N17       29.73R FOG     WCI  28
$$

...REGIONAL REPORTS...


CITY           SKY/WX    TMP DP  RH WIND       PRES   REMARKS
CHICAGO O`HARE CLOUDY    37  36  96 NW10      29.70R WCI  30
KANKAKEE       CLOUDY    39  37  91 N9        29.70R WCI  33
MOLINE         CLOUDY    37  34  89 NW6       29.78S WCI  32
MOUNT STERLING CLOUDY    37  35  93 NW16      29.78S WCI  27
MOUNT VERNON   CLOUDY    41  37  86 N8G20     29.68R
PITTSFIELD     CLOUDY    39  37  92 NW10      29.79S WCI  32
QUINCY         CLOUDY    38  35  89 NW15      29.79R WCI  29
ROCKFORD       DRIZZLE   37  35  92 NW8       29.75F WCI  31
$$


CITY           SKY/WX    TMP DP  RH WIND       PRES   REMARKS
BURLINGTON     CLOUDY    37  35  92 NW9       29.80R WCI  30
CEDAR RAPIDS   CLOUDY    34  33  96 NW10      29.80S FOG     WCI  26
DES MOINES     CLOUDY    32  29  88 NW10      29.86F WCI  24
KIRKSVILLE     CLOUDY    38  36  92 NW8       29.82F WCI  32
OTTUMWA        CLOUDY    37  34  89 NW12      29.81F WCI  29
ST LOUIS       CLOUDY    41  35  79 NW13      29.77R WCI  34
$$


CITY           SKY/WX    TMP DP  RH WIND       PRES   REMARKS
TERRE HAUTE    CLOUDY    43  40  89 NW14G20   29.61R FOG
EVANSVILLE     CLOUDY    45  41  86 NW21G31   29.56R
INDIANAPOLIS   CLOUDY    44  43  96 N17       29.55R FOG
LAFAYETTE      CLOUDY    41  41 100 N9        29.63S
MADISON        CLOUDY    36  34  92 NW8       29.75S WCI  30
MILWAUKEE      CLOUDY    39  35  86 NW7G17    29.71S WCI  34
$$






USA.gov is the U.S. government's official web portal to all federal, state and local government web resources and services.